Year,Month,Day,Hour,Minute,Value (Times are PST for temperature in C)
2022,01,01,00,00,-8.10
2022,01,01,00,01,-8.10
2022,01,01,00,02,-8.10
2022,01,01,00,03,-8.10
2022,01,01,00,04,-8.10
2022,01,01,00,05,-8.20
2022,01,01,00,06,-8.10
2022,01,01,00,07,-8.10
2022,01,01,00,08,-8.10
2022,01,01,00,09,-8.10
2022,01,01,00,10,-8.10
2022,01,01,00,11,-8.10
2022,01,01,00,12,-8.10
2022,01,01,00,13,-8.10
2022,01,01,00,14,-8.10
2022,01,01,00,15,-8.10
2022,01,01,00,16,-8.00
2022,01,01,00,17,-8.00
2022,01,01,00,18,-7.90
2022,01,01,00,19,-7.80
2022,01,01,00,20,-7.70
2022,01,01,00,21,-7.50
2022,01,01,00,22,-7.40
2022,01,01,00,23,-7.40
2022,01,01,00,24,-7.40
2022,01,01,00,25,-7.40
2022,01,01,00,26,-7.40
2022,01,01,00,27,-7.50
2022,01,01,00,28,-7.50
2022,01,01,00,29,-7.60
2022,01,01,00,30,-7.60
2022,01,01,00,31,-7.60
2022,01,01,00,32,-7.60
2022,01,01,00,33,-7.60
2022,01,01,00,34,-7.60
2022,01,01,00,35,-7.50
2022,01,01,00,36,-7.50
2022,01,01,00,37,-7.50
2022,01,01,00,38,-7.40
2022,01,01,00,39,-7.40
2022,01,01,00,40,-7.30
2022,01,01,00,41,-7.30
2022,01,01,00,42,-7.30
2022,01,01,00,43,-7.20
2022,01,01,00,44,-7.20
2022,01,01,00,45,-7.20
2022,01,01,00,46,-7.20
2022,01,01,00,47,-7.20
2022,01,01,00,48,-7.20
2022,01,01,00,49,-7.20
2022,01,01,00,50,-7.20
2022,01,01,00,51,-7.20
2022,01,01,00,52,-7.10
2022,01,01,00,53,-6.90
2022,01,01,00,54,-6.90
2022,01,01,00,55,-6.80
2022,01,01,00,56,-6.80
2022,01,01,00,57,-6.80
2022,01,01,00,58,-6.80
2022,01,01,00,59,-6.70
2022,01,01,01,00,-6.70
2022,01,01,01,01,-6.70
2022,01,01,01,02,-6.70
2022,01,01,01,03,-6.70
2022,01,01,01,04,-6.70
2022,01,01,01,05,-6.60
2022,01,01,01,06,-6.50
2022,01,01,01,07,-6.50
2022,01,01,01,08,-6.40
2022,01,01,01,09,-6.30
2022,01,01,01,10,-6.30
2022,01,01,01,11,-6.20
2022,01,01,01,12,-6.20
2022,01,01,01,13,-6.20
2022,01,01,01,14,-6.10
2022,01,01,01,15,-6.10
2022,01,01,01,16,-6.10
2022,01,01,01,17,-6.10
2022,01,01,01,18,-6.10
2022,01,01,01,19,-6.10
2022,01,01,01,20,-6.00
2022,01,01,01,21,-6.00
2022,01,01,01,22,-6.00
2022,01,01,01,23,-6.00
2022,01,01,01,24,-5.90
2022,01,01,01,25,-5.90
2022,01,01,01,26,-5.90
2022,01,01,01,27,-5.80
2022,01,01,01,28,-5.80
2022,01,01,01,29,-5.80
2022,01,01,01,30,-5.80
2022,01,01,01,31,-5.80
2022,01,01,01,32,-5.80
2022,01,01,01,33,-5.80
2022,01,01,01,34,-5.80
2022,01,01,01,35,-5.80
2022,01,01,01,36,-5.80
2022,01,01,01,37,-5.90
2022,01,01,01,38,-5.90
2022,01,01,01,39,-5.90
2022,01,01,01,40,-5.90
2022,01,01,01,41,-5.90
2022,01,01,01,42,-5.80
2022,01,01,01,43,-5.80
2022,01,01,01,44,-5.80
2022,01,01,01,45,-5.70
2022,01,01,01,46,-5.70
2022,01,01,01,47,-5.70
2022,01,01,01,48,-5.60
2022,01,01,01,49,-5.60
2022,01,01,01,50,-5.60
2022,01,01,01,51,-5.60
2022,01,01,01,52,-5.60
2022,01,01,01,53,-5.60
2022,01,01,01,54,-5.60
2022,01,01,01,55,-5.50
2022,01,01,01,56,-5.50
2022,01,01,01,57,-5.40
2022,01,01,01,58,-5.40
2022,01,01,01,59,-5.40
2022,01,01,02,00,-5.40
2022,01,01,02,01,-5.30
2022,01,01,02,02,-5.30
2022,01,01,02,03,-5.30
2022,01,01,02,04,-5.30
2022,01,01,02,05,-5.20
2022,01,01,02,06,-5.20
2022,01,01,02,07,-5.20
2022,01,01,02,08,-5.20
2022,01,01,02,09,-5.10
2022,01,01,02,10,-5.10
2022,01,01,02,11,-5.00
2022,01,01,02,12,-5.00
2022,01,01,02,13,-5.00
2022,01,01,02,14,-4.90
2022,01,01,02,15,-4.90
2022,01,01,02,16,-4.90
2022,01,01,02,17,-4.80
2022,01,01,02,18,-4.80
2022,01,01,02,19,-4.80
2022,01,01,02,20,-4.80
2022,01,01,02,21,-4.80
2022,01,01,02,22,-4.80
2022,01,01,02,23,-4.80
2022,01,01,02,24,-4.80
2022,01,01,02,25,-4.70
2022,01,01,02,26,-4.70
2022,01,01,02,27,-4.70
2022,01,01,02,28,-4.70
2022,01,01,02,29,-4.70
2022,01,01,02,30,-4.70
2022,01,01,02,31,-4.70
2022,01,01,02,32,-4.60
2022,01,01,02,33,-4.60
2022,01,01,02,34,-4.60
2022,01,01,02,35,-4.60
2022,01,01,02,36,-4.60
2022,01,01,02,37,-4.60
2022,01,01,02,38,-4.60
2022,01,01,02,39,-4.50
2022,01,01,02,40,-4.50
2022,01,01,02,41,-4.50
2022,01,01,02,42,-4.40
2022,01,01,02,43,-4.40
2022,01,01,02,44,-4.40
2022,01,01,02,45,-4.40
2022,01,01,02,46,-4.40
2022,01,01,02,47,-4.40
2022,01,01,02,48,-4.40
2022,01,01,02,49,-4.30
2022,01,01,02,50,-4.30
2022,01,01,02,51,-4.30
2022,01,01,02,52,-4.30
2022,01,01,02,53,-4.30
2022,01,01,02,54,-4.30
2022,01,01,02,55,-4.20
2022,01,01,02,56,-4.20
2022,01,01,02,57,-4.20
2022,01,01,02,58,-4.20
2022,01,01,02,59,-4.20
2022,01,01,03,00,-4.10
2022,01,01,03,01,-4.10
2022,01,01,03,02,-4.10
2022,01,01,03,03,-4.10
2022,01,01,03,04,-4.00
2022,01,01,03,05,-4.00
2022,01,01,03,06,-4.00
2022,01,01,03,07,-3.90
2022,01,01,03,08,-3.90
2022,01,01,03,09,-3.90
2022,01,01,03,10,-3.90
2022,01,01,03,11,-3.90
2022,01,01,03,12,-3.80
2022,01,01,03,13,-3.80
2022,01,01,03,14,-3.80
2022,01,01,03,15,-3.80
2022,01,01,03,16,-3.80
2022,01,01,03,17,-3.80
2022,01,01,03,18,-3.70
2022,01,01,03,19,-3.70
2022,01,01,03,20,-3.70
2022,01,01,03,21,-3.60
2022,01,01,03,22,-3.60
2022,01,01,03,23,-3.60
2022,01,01,03,24,-3.50
2022,01,01,03,25,-3.50
2022,01,01,03,26,-3.50
2022,01,01,03,27,-3.40
2022,01,01,03,28,-3.40
2022,01,01,03,29,-3.40
2022,01,01,03,30,-3.40
2022,01,01,03,31,-3.40
2022,01,01,03,32,-3.30
2022,01,01,03,33,-3.30
2022,01,01,03,34,-3.30
2022,01,01,03,35,-3.30
2022,01,01,03,36,-3.30
2022,01,01,03,37,-3.30
2022,01,01,03,38,-3.20
2022,01,01,03,39,-3.20
2022,01,01,03,40,-3.20
2022,01,01,03,41,-3.20
2022,01,01,03,42,-3.20
2022,01,01,03,43,-3.20
2022,01,01,03,44,-3.20
2022,01,01,03,45,-3.20
2022,01,01,03,46,-3.20
2022,01,01,03,47,-3.20
2022,01,01,03,48,-3.20
2022,01,01,03,49,-3.20
2022,01,01,03,50,-3.20
2022,01,01,08,55,-0.80
2022,01,01,08,56,-0.80
2022,01,01,08,57,-0.80
2022,01,01,08,58,-0.70
2022,01,01,08,59,-0.70
2022,01,01,09,00,-0.60
2022,01,01,09,01,-0.60
2022,01,01,09,02,-0.50
2022,01,01,09,03,-0.50
2022,01,01,09,04,-0.40
2022,01,01,09,05,-0.30
2022,01,01,09,06,-0.30
2022,01,01,09,07,-0.30
2022,01,01,09,08,-0.30
2022,01,01,09,09,-0.20
2022,01,01,09,10,-0.20
2022,01,01,09,11,-0.10
2022,01,01,09,12,-0.10
2022,01,01,09,13,-0.10
2022,01,01,09,14,0.00
2022,01,01,09,15,0.00
2022,01,01,09,16,0.00
2022,01,01,09,17,0.10
2022,01,01,09,18,0.10
2022,01,01,09,19,0.10
2022,01,01,09,20,0.10
2022,01,01,09,21,0.20
2022,01,01,09,22,0.20
2022,01,01,09,23,0.20
2022,01,01,09,24,0.20
2022,01,01,09,25,0.30
2022,01,01,09,26,0.30
2022,01,01,09,27,0.30
2022,01,01,09,28,0.30
2022,01,01,09,29,0.30
2022,01,01,09,30,0.30
2022,01,01,09,31,0.30
2022,01,01,09,32,0.30
2022,01,01,09,33,0.40
2022,01,01,09,34,0.40
2022,01,01,09,35,0.40
2022,01,01,09,36,0.40
2022,01,01,09,37,0.40
2022,01,01,09,38,0.40
2022,01,01,09,39,0.40
2022,01,01,09,40,0.40
2022,01,01,09,41,0.50
2022,01,01,09,42,0.50
2022,01,01,09,43,0.50
2022,01,01,09,44,0.50
2022,01,01,09,45,0.50
2022,01,01,09,46,0.60
2022,01,01,09,47,0.60
2022,01,01,09,48,0.60
2022,01,01,09,49,0.60
2022,01,01,09,50,0.60
2022,01,01,09,51,0.60
2022,01,01,09,52,0.60
2022,01,01,09,53,0.70
2022,01,01,09,54,0.70
2022,01,01,09,55,0.70
2022,01,01,09,56,0.70
2022,01,01,09,57,0.70
2022,01,01,09,58,0.70
2022,01,01,09,59,0.70
2022,01,01,10,00,0.70
2022,01,01,10,01,0.70
2022,01,01,10,02,0.70
2022,01,01,10,03,0.70
2022,01,01,10,04,0.70
2022,01,01,10,05,0.70
2022,01,01,10,06,0.70
2022,01,01,10,07,0.70
2022,01,01,10,08,0.70
2022,01,01,10,09,0.70
2022,01,01,10,10,0.70
2022,01,01,10,11,0.70
2022,01,01,10,12,0.70
2022,01,01,10,13,0.70
2022,01,01,10,14,0.80
2022,01,01,10,15,0.80
2022,01,01,10,16,0.80
2022,01,01,10,17,0.80
2022,01,01,10,18,0.80
2022,01,01,10,19,0.80
2022,01,01,10,20,0.80
2022,01,01,10,21,0.80
2022,01,01,10,22,0.80
2022,01,01,10,23,0.80
2022,01,01,10,24,0.80
2022,01,01,10,25,0.80
2022,01,01,10,26,0.80
2022,01,01,10,27,0.80
2022,01,01,10,28,0.80
2022,01,01,10,29,0.80
2022,01,01,10,30,0.80
2022,01,01,10,31,0.80
2022,01,01,10,32,0.80
2022,01,01,10,33,0.80
2022,01,01,10,34,0.80
2022,01,01,10,35,0.80
2022,01,01,10,36,0.80
2022,01,01,10,37,0.80
2022,01,01,10,38,0.80
2022,01,01,10,39,0.80
2022,01,01,10,40,0.80
2022,01,01,10,41,0.80
2022,01,01,10,42,0.80
2022,01,01,10,43,0.80
2022,01,01,10,44,0.80
2022,01,01,10,45,0.80
2022,01,01,10,46,0.80
2022,01,01,10,47,0.80
2022,01,01,10,48,0.80
2022,01,01,10,49,0.80
2022,01,01,10,50,0.80
2022,01,01,10,51,0.80
2022,01,01,10,52,0.80
2022,01,01,10,53,0.80
2022,01,01,10,54,0.80
2022,01,01,10,55,0.80
2022,01,01,10,56,0.90
2022,01,01,10,57,0.90
2022,01,01,10,58,0.90
2022,01,01,10,59,0.90
2022,01,01,11,00,0.90
2022,01,01,11,01,0.90
2022,01,01,11,02,0.90
2022,01,01,11,03,0.90
2022,01,01,11,04,0.90
2022,01,01,11,05,0.90
2022,01,01,11,06,0.90
2022,01,01,11,07,0.90
2022,01,01,11,08,0.90
2022,01,01,11,09,0.90
2022,01,01,11,10,0.90
2022,01,01,11,11,0.90
2022,01,01,11,12,0.90
2022,01,01,11,13,0.80
2022,01,01,11,14,0.80
2022,01,01,11,15,0.90
2022,01,01,11,16,0.90
2022,01,01,11,17,0.90
2022,01,01,11,18,0.90
2022,01,01,11,19,0.90
2022,01,01,11,20,0.80
2022,01,01,11,21,0.80
2022,01,01,11,22,0.80
2022,01,01,11,23,0.80
2022,01,01,11,24,0.80
2022,01,01,11,25,0.70
2022,01,01,11,26,0.70
2022,01,01,11,27,0.70
2022,01,01,11,28,0.70
2022,01,01,11,29,0.70
2022,01,01,11,30,0.70
2022,01,01,11,31,0.70
2022,01,01,11,32,0.70
2022,01,01,11,33,0.70
2022,01,01,11,34,0.70
2022,01,01,11,35,0.60
2022,01,01,11,36,0.70
2022,01,01,11,37,0.70
2022,01,01,11,38,0.60
2022,01,01,11,39,0.60
2022,01,01,11,40,0.60
2022,01,01,11,41,0.70
2022,01,01,11,42,0.70
2022,01,01,11,43,0.70
2022,01,01,11,44,0.70
2022,01,01,11,45,0.70
2022,01,01,11,46,0.70
2022,01,01,11,47,0.70
2022,01,01,11,48,0.70
2022,01,01,11,49,0.70
2022,01,01,11,50,0.70
2022,01,01,11,51,0.70
2022,01,01,11,52,0.70
2022,01,01,11,53,0.70
2022,01,01,11,54,0.70
2022,01,01,11,55,0.70
2022,01,01,11,56,0.70
2022,01,01,11,57,0.70
2022,01,01,11,58,0.80
2022,01,01,11,59,0.70
2022,01,01,12,00,0.70
2022,01,01,12,01,0.70
2022,01,01,12,02,0.70
2022,01,01,12,03,0.80
2022,01,01,12,04,0.80
2022,01,01,12,05,0.80
2022,01,01,12,06,0.80
2022,01,01,12,07,0.80
2022,01,01,12,08,0.80
2022,01,01,12,09,0.80
2022,01,01,12,10,0.80
2022,01,01,12,11,0.80
2022,01,01,12,12,0.80
2022,01,01,12,13,0.80
2022,01,01,12,14,0.80
2022,01,01,12,15,0.80
2022,01,01,12,16,0.80
2022,01,01,12,17,0.80
2022,01,01,12,18,0.80
2022,01,01,12,19,0.80
2022,01,01,12,20,0.80
2022,01,01,12,21,0.80
2022,01,01,12,22,0.80
2022,01,01,12,23,0.80
2022,01,01,12,24,0.80
2022,01,01,12,25,0.90
2022,01,01,12,26,0.90
2022,01,01,12,27,0.90
2022,01,01,12,28,0.90
2022,01,01,12,29,0.90
2022,01,01,12,30,0.90
2022,01,01,12,31,0.90
2022,01,01,12,32,0.90
2022,01,01,12,33,0.90
2022,01,01,12,34,0.90
2022,01,01,12,35,0.90
2022,01,01,12,36,1.00
2022,01,01,12,37,1.00
2022,01,01,12,38,1.00
2022,01,01,12,39,1.00
2022,01,01,12,40,1.00
2022,01,01,12,41,1.00
2022,01,01,12,42,1.00
2022,01,01,12,43,1.00
2022,01,01,12,44,1.00
2022,01,01,12,45,1.00
2022,01,01,12,46,1.00
2022,01,01,12,47,1.10
2022,01,01,12,48,1.10
2022,01,01,12,49,1.10
2022,01,01,12,50,1.10
2022,01,01,12,51,1.10
2022,01,01,12,52,1.10
2022,01,01,12,53,1.10
2022,01,01,12,54,1.10
2022,01,01,12,55,1.10
2022,01,01,12,56,1.10
2022,01,01,12,57,1.10
2022,01,01,12,58,1.10
2022,01,01,12,59,1.10
2022,01,01,13,00,1.10
2022,01,01,13,01,1.10
2022,01,01,13,02,1.10
2022,01,01,13,03,1.00
2022,01,01,13,04,1.00
2022,01,01,13,05,1.00
2022,01,01,13,06,1.00
2022,01,01,13,07,1.00
2022,01,01,13,08,1.00
2022,01,01,13,09,1.00
2022,01,01,13,10,1.00
2022,01,01,13,11,1.00
2022,01,01,13,12,1.00
2022,01,01,13,13,0.90
2022,01,01,13,14,0.90
2022,01,01,13,15,1.00
2022,01,01,13,16,1.00
2022,01,01,13,17,0.90
2022,01,01,13,18,0.90
2022,01,01,13,19,0.90
2022,01,01,13,20,0.90
2022,01,01,13,21,0.90
2022,01,01,13,22,0.90
2022,01,01,13,23,0.90
2022,01,01,13,24,0.90
2022,01,01,13,25,0.90
2022,01,01,13,26,0.90
2022,01,01,13,27,0.90
2022,01,01,13,28,0.90
2022,01,01,13,29,0.90
2022,01,01,13,30,1.00
2022,01,01,13,31,1.00
2022,01,01,13,32,1.00
2022,01,01,13,33,1.00
2022,01,01,13,34,0.90
2022,01,01,13,35,1.00
2022,01,01,13,36,1.00
2022,01,01,13,37,1.00
2022,01,01,13,38,1.00
2022,01,01,13,39,1.00
2022,01,01,13,40,1.00
2022,01,01,13,41,1.00
2022,01,01,13,42,1.00
2022,01,01,13,43,1.00
2022,01,01,13,44,1.00
2022,01,01,13,45,1.00
2022,01,01,13,46,1.00
2022,01,01,13,47,1.00
2022,01,01,13,48,1.00
2022,01,01,13,49,1.00
2022,01,01,13,50,1.00
2022,01,01,13,51,1.00
2022,01,01,13,52,1.00
2022,01,01,13,53,1.00
2022,01,01,13,54,1.00
2022,01,01,13,55,1.00
2022,01,01,13,56,1.00
2022,01,01,13,57,1.00
2022,01,01,13,58,1.00
2022,01,01,13,59,1.00
2022,01,01,14,00,1.00
2022,01,01,14,01,1.00
2022,01,01,14,02,1.00
2022,01,01,14,03,1.00
2022,01,01,14,04,1.00
2022,01,01,14,05,1.00
2022,01,01,14,06,1.00
2022,01,01,14,07,0.90
2022,01,01,14,08,0.90
2022,01,01,14,09,0.90
2022,01,01,14,10,0.90
2022,01,01,14,11,0.90
2022,01,01,14,12,0.90
2022,01,01,14,13,0.90
2022,01,01,14,14,1.00
2022,01,01,14,15,1.00
2022,01,01,14,16,1.00
2022,01,01,14,17,1.00
2022,01,01,14,18,1.00
2022,01,01,14,19,1.00
2022,01,01,14,20,1.00
2022,01,01,14,21,1.00
2022,01,01,14,22,1.10
2022,01,01,14,23,1.10
2022,01,01,14,24,1.10
2022,01,01,14,25,1.10
2022,01,01,14,26,1.10
2022,01,01,14,27,1.10
2022,01,01,14,28,1.10
2022,01,01,14,29,1.10
2022,01,01,14,30,1.10
2022,01,01,14,31,1.10
2022,01,01,14,32,1.10
2022,01,01,14,33,1.10
2022,01,01,14,34,1.10
2022,01,01,14,35,1.10
2022,01,01,14,36,1.10
2022,01,01,14,37,1.10
2022,01,01,14,38,1.10
2022,01,01,14,39,1.10
2022,01,01,14,40,1.10
2022,01,01,14,41,1.10
2022,01,01,14,42,1.10
2022,01,01,14,43,1.20
2022,01,01,14,44,1.20
2022,01,01,14,45,1.20
2022,01,01,14,46,1.20
2022,01,01,14,47,1.20
2022,01,01,14,48,1.20
2022,01,01,14,49,1.20
2022,01,01,14,50,1.20
2022,01,01,14,51,1.20
2022,01,01,14,52,1.20
2022,01,01,14,53,1.20
2022,01,01,14,54,1.20
2022,01,01,14,55,1.20
2022,01,01,14,56,1.30
2022,01,01,14,57,1.30
2022,01,01,14,58,1.30
2022,01,01,14,59,1.30
2022,01,01,15,00,1.30
2022,01,01,15,01,1.30
2022,01,01,15,02,1.30
2022,01,01,15,03,1.30
2022,01,01,15,04,1.30
2022,01,01,15,05,1.30
2022,01,01,15,06,1.30
2022,01,01,15,07,1.30
2022,01,01,15,08,1.40
2022,01,01,15,09,1.40
2022,01,01,15,10,1.40
2022,01,01,15,11,1.40
2022,01,01,15,12,1.40
2022,01,01,15,13,1.40
2022,01,01,15,14,1.40
2022,01,01,15,15,1.40
2022,01,01,15,16,1.40
2022,01,01,15,17,1.40
2022,01,01,15,18,1.40
2022,01,01,15,19,1.50
2022,01,01,15,20,1.50
2022,01,01,15,21,1.50
2022,01,01,15,22,1.50
2022,01,01,15,23,1.50
2022,01,01,15,24,1.50
2022,01,01,15,25,1.50
2022,01,01,15,26,1.50
2022,01,01,15,27,1.50
2022,01,01,15,28,1.50
2022,01,01,15,29,1.50
2022,01,01,15,30,1.50
2022,01,01,15,31,1.50
2022,01,01,15,32,1.40
2022,01,01,15,33,1.40
2022,01,01,15,34,1.40
2022,01,01,15,35,1.40
2022,01,01,15,36,1.40
2022,01,01,15,37,1.40
2022,01,01,15,38,1.40
2022,01,01,15,39,1.40
2022,01,01,15,40,1.40
2022,01,01,15,41,1.30
2022,01,01,15,42,1.30
2022,01,01,15,43,1.30
2022,01,01,15,44,1.30
2022,01,01,15,45,1.30
2022,01,01,15,46,1.30
2022,01,01,15,47,1.30
2022,01,01,15,48,1.30
2022,01,01,15,49,1.30
2022,01,01,15,50,1.30
2022,01,01,15,51,1.30
2022,01,01,15,52,1.30
2022,01,01,15,53,1.30
2022,01,01,15,54,1.30
2022,01,01,15,55,1.30
2022,01,01,15,56,1.30
2022,01,01,15,57,1.30
2022,01,01,15,58,1.30
2022,01,01,15,59,1.30
2022,01,01,16,00,1.30
2022,01,01,16,01,1.30
2022,01,01,16,02,1.30
2022,01,01,16,03,1.30
2022,01,01,16,04,1.30
2022,01,01,16,05,1.30
2022,01,01,16,06,1.30
2022,01,01,16,07,1.20
2022,01,01,16,08,1.20
2022,01,01,16,09,1.20
2022,01,01,16,10,1.20
2022,01,01,16,11,1.20
2022,01,01,16,12,1.20
2022,01,01,16,13,1.20
2022,01,01,16,14,1.20
2022,01,01,16,15,1.20
2022,01,01,16,16,1.20
2022,01,01,16,17,1.20
2022,01,01,16,18,1.20
2022,01,01,16,19,1.20
2022,01,01,16,20,1.20
2022,01,01,16,21,1.20
2022,01,01,16,22,1.20
2022,01,01,16,23,1.20
2022,01,01,16,24,1.20
2022,01,01,16,25,1.10
2022,01,01,16,26,1.10
2022,01,01,16,27,1.10
2022,01,01,16,28,1.10
2022,01,01,16,29,1.10
2022,01,01,16,30,1.10
2022,01,01,16,31,1.10
2022,01,01,16,32,1.10
2022,01,01,16,33,1.10
2022,01,01,16,34,1.10
2022,01,01,16,35,1.10
2022,01,01,16,36,1.10
2022,01,01,16,37,1.10
2022,01,01,16,38,1.10
2022,01,01,16,39,1.10
2022,01,01,16,40,1.00
2022,01,01,16,41,1.00
2022,01,01,16,42,1.00
2022,01,01,16,43,1.00
2022,01,01,16,44,1.00
2022,01,01,16,45,1.10
2022,01,01,16,46,1.10
2022,01,01,16,47,1.00
2022,01,01,16,48,1.00
2022,01,01,16,49,1.00
2022,01,01,16,50,1.00
2022,01,01,16,51,1.00
2022,01,01,16,52,0.90
2022,01,01,16,53,0.90
2022,01,01,16,54,0.90
2022,01,01,16,55,0.90
2022,01,01,16,56,0.90
2022,01,01,16,57,0.90
2022,01,01,16,58,0.90
2022,01,01,16,59,0.90
2022,01,01,17,00,0.90
2022,01,01,17,01,0.90
2022,01,01,17,02,0.90
2022,01,01,17,03,0.90
2022,01,01,17,04,0.80
2022,01,01,17,05,0.80
2022,01,01,17,06,0.80
2022,01,01,17,07,0.70
2022,01,01,17,08,0.70
2022,01,01,17,09,0.70
2022,01,01,17,10,0.60
2022,01,01,17,11,0.60
2022,01,01,17,12,0.60
2022,01,01,17,13,0.60
2022,01,01,17,14,0.60
2022,01,01,17,15,0.60
2022,01,01,17,16,0.50
2022,01,01,17,17,0.50
2022,01,01,17,18,0.50
2022,01,01,17,19,0.50
2022,01,01,17,20,0.50
2022,01,01,17,21,0.50
2022,01,01,17,22,0.50
2022,01,01,17,23,0.60
2022,01,01,17,24,0.60
2022,01,01,17,25,0.60
2022,01,01,17,26,0.70
2022,01,01,17,27,0.70
2022,01,01,17,28,0.60
2022,01,01,17,29,0.60
2022,01,01,17,30,0.60
2022,01,01,17,31,0.50
2022,01,01,17,32,0.50
2022,01,01,17,33,0.50
2022,01,01,17,34,0.50
2022,01,01,17,35,0.40
2022,01,01,17,36,0.40
2022,01,01,17,37,0.40
2022,01,01,17,38,0.50
2022,01,01,17,39,0.40
2022,01,01,17,40,0.40
2022,01,01,17,41,0.40
2022,01,01,17,42,0.40
2022,01,01,17,43,0.40
2022,01,01,17,44,0.40
2022,01,01,17,45,0.40
2022,01,01,17,46,0.30
2022,01,01,17,47,0.30
2022,01,01,17,48,0.30
2022,01,01,17,49,0.30
2022,01,01,17,50,0.40
2022,01,01,17,51,0.40
2022,01,01,17,52,0.40
2022,01,01,17,53,0.40
2022,01,01,17,54,0.30
2022,01,01,17,55,0.40
2022,01,01,17,56,0.40
2022,01,01,17,57,0.40
2022,01,01,17,58,0.50
2022,01,01,17,59,0.50
2022,01,01,18,00,0.50
2022,01,01,18,01,0.60
2022,01,01,18,02,0.60
2022,01,01,18,03,0.60
2022,01,01,18,04,0.60
2022,01,01,18,05,0.50
2022,01,01,18,06,0.50
2022,01,01,18,07,0.50
2022,01,01,18,08,0.50
2022,01,01,18,09,0.60
2022,01,01,18,10,0.60
2022,01,01,18,11,0.60
2022,01,01,18,12,0.60
2022,01,01,18,13,0.60
2022,01,01,18,14,0.50
2022,01,01,18,15,0.60
2022,01,01,18,16,0.60
2022,01,01,18,17,0.60
2022,01,01,18,18,0.60
2022,01,01,18,19,0.60
2022,01,01,18,20,0.60
2022,01,01,18,21,0.70
2022,01,01,18,22,0.70
2022,01,01,18,23,0.70
2022,01,01,18,24,0.70
2022,01,01,18,25,0.70
2022,01,01,18,26,0.70
2022,01,01,18,27,0.70
2022,01,01,18,28,0.70
2022,01,01,18,29,0.70
2022,01,01,18,30,0.70
2022,01,01,18,31,0.70
2022,01,01,18,32,0.80
2022,01,01,18,33,0.80
2022,01,01,18,34,0.80
2022,01,01,18,35,0.80
2022,01,01,18,36,0.80
2022,01,01,18,37,0.70
2022,01,01,18,38,0.70
2022,01,01,18,39,0.70
2022,01,01,18,40,0.70
2022,01,01,18,41,0.70
2022,01,01,18,42,0.70
2022,01,01,18,43,0.70
2022,01,01,18,44,0.70
2022,01,01,18,45,0.70
2022,01,01,18,46,0.70
2022,01,01,18,47,0.70
2022,01,01,18,48,0.80
2022,01,01,18,49,0.80
2022,01,01,18,50,0.90
2022,01,01,18,51,0.90
2022,01,01,18,52,0.90
2022,01,01,18,53,0.90
2022,01,01,18,54,0.90
2022,01,01,18,55,0.90
2022,01,01,18,56,0.90
2022,01,01,18,57,0.90
2022,01,01,18,58,0.80
2022,01,01,18,59,0.80
2022,01,01,19,00,0.90
2022,01,01,19,01,0.90
2022,01,01,19,02,0.80
2022,01,01,19,03,0.80
2022,01,01,19,04,0.90
2022,01,01,19,05,1.00
2022,01,01,19,06,1.00
2022,01,01,19,07,1.10
2022,01,01,19,08,1.10
2022,01,01,19,09,1.10
2022,01,01,19,10,1.00
2022,01,01,19,11,1.00
2022,01,01,19,12,1.00
2022,01,01,19,13,1.00
2022,01,01,19,14,0.90
2022,01,01,19,15,0.90
2022,01,01,19,16,0.90
2022,01,01,19,17,0.90
2022,01,01,19,18,0.90
2022,01,01,19,19,0.90
2022,01,01,19,20,0.90
2022,01,01,19,21,0.80
2022,01,01,19,22,0.80
2022,01,01,19,23,0.80
2022,01,01,19,24,0.80
2022,01,01,19,25,0.80
2022,01,01,19,26,0.80
2022,01,01,19,27,0.80
2022,01,01,19,28,0.80
2022,01,01,19,29,0.80
2022,01,01,19,30,0.70
2022,01,01,19,31,0.70
2022,01,01,19,32,0.70
2022,01,01,19,33,0.70
2022,01,01,19,34,0.70
2022,01,01,19,35,0.70
2022,01,01,19,36,0.60
2022,01,01,19,37,0.60
2022,01,01,19,38,0.60
2022,01,01,19,39,0.60
2022,01,01,19,40,0.70
2022,01,01,19,41,0.60
2022,01,01,19,42,0.60
2022,01,01,19,43,0.60
2022,01,01,19,44,0.50
2022,01,01,19,45,0.40
2022,01,01,19,46,0.30
2022,01,01,19,47,0.30
2022,01,01,19,48,0.30
2022,01,01,19,49,0.20
2022,01,01,19,50,0.20
2022,01,01,19,51,0.10
2022,01,01,19,52,0.10
2022,01,01,19,53,0.10
2022,01,01,19,54,0.10
2022,01,01,19,55,0.10
2022,01,01,19,56,0.10
2022,01,01,19,57,0.10
2022,01,01,19,58,0.10
2022,01,01,19,59,0.20
2022,01,01,20,00,0.20
2022,01,01,20,01,0.20
2022,01,01,20,02,0.10
2022,01,01,20,03,0.10
2022,01,01,20,04,0.10
2022,01,01,20,05,0.10
2022,01,01,20,06,0.10
2022,01,01,20,07,0.10
2022,01,01,20,08,0.10
2022,01,01,20,09,0.10
2022,01,01,20,10,0.20
2022,01,01,20,11,0.20
2022,01,01,20,12,0.20
2022,01,01,20,13,0.20
2022,01,01,20,14,0.20
2022,01,01,20,15,0.30
2022,01,01,20,16,0.40
2022,01,01,20,17,0.40
2022,01,01,20,18,0.40
2022,01,01,20,19,0.50
2022,01,01,20,20,0.50
2022,01,01,20,21,0.40
2022,01,01,20,22,0.40
2022,01,01,20,23,0.40
2022,01,01,20,24,0.40
2022,01,01,20,25,0.40
2022,01,01,20,26,0.40
2022,01,01,20,27,0.50
2022,01,01,20,28,0.50
2022,01,01,20,29,0.60
2022,01,01,20,30,0.60
2022,01,01,20,31,0.70
2022,01,01,20,32,0.70
2022,01,01,20,33,0.70
2022,01,01,20,34,0.80
2022,01,01,20,35,0.80
2022,01,01,20,36,0.80
2022,01,01,20,37,0.80
2022,01,01,20,38,0.80
2022,01,01,20,39,0.90
2022,01,01,20,40,0.90
2022,01,01,20,41,0.80
2022,01,01,20,42,0.90
2022,01,01,20,43,0.90
2022,01,01,20,44,0.90
2022,01,01,20,45,0.90
2022,01,01,20,46,0.90
2022,01,01,20,47,1.00
2022,01,01,20,48,1.00
2022,01,01,20,49,1.10
2022,01,01,20,50,1.10
2022,01,01,20,51,1.10
2022,01,01,20,52,1.10
2022,01,01,20,53,1.10
2022,01,01,20,54,1.10
2022,01,01,20,55,1.10
2022,01,01,20,56,1.10
2022,01,01,20,57,1.10
2022,01,01,20,58,1.10
2022,01,01,20,59,1.10
2022,01,01,21,00,1.10
2022,01,01,21,01,1.00
2022,01,01,21,02,1.00
2022,01,01,21,03,0.90
2022,01,01,21,04,0.90
2022,01,01,21,05,0.90
2022,01,01,21,06,0.90
2022,01,01,21,07,0.90
2022,01,01,21,08,0.90
2022,01,01,21,09,0.80
2022,01,01,21,10,0.80
2022,01,01,21,11,0.80
2022,01,01,21,12,0.80
2022,01,01,21,13,0.80
2022,01,01,21,14,0.80
2022,01,01,21,15,0.80
2022,01,01,21,16,0.80
2022,01,01,21,17,0.80
2022,01,01,21,18,0.80
2022,01,01,21,19,0.80
2022,01,01,21,20,0.80
2022,01,01,21,21,0.80
2022,01,01,21,22,0.90
2022,01,01,21,23,0.90
2022,01,01,21,24,0.80
2022,01,01,21,25,0.80
2022,01,01,21,26,0.80
2022,01,01,21,27,0.70
2022,01,01,21,28,0.80
2022,01,01,21,29,0.80
2022,01,01,21,30,0.90
2022,01,01,21,31,0.90
2022,01,01,21,32,0.90
2022,01,01,21,33,1.00
2022,01,01,21,34,1.00
2022,01,01,21,35,1.00
2022,01,01,21,36,1.00
2022,01,01,21,37,1.00
2022,01,01,21,38,0.90
2022,01,01,21,39,0.90
2022,01,01,21,40,0.90
2022,01,01,21,41,0.90
2022,01,01,21,42,0.90
2022,01,01,21,43,0.90
2022,01,01,21,44,0.90
2022,01,01,21,45,0.90
2022,01,01,21,46,0.90
2022,01,01,21,47,0.90
2022,01,01,21,48,0.90
2022,01,01,21,49,0.90
2022,01,01,21,50,0.90
2022,01,01,21,51,0.90
2022,01,01,21,52,0.90
2022,01,01,21,53,0.90
2022,01,01,21,54,0.90
2022,01,01,21,55,0.90
2022,01,01,21,56,0.90
2022,01,01,21,57,1.00
2022,01,01,21,58,1.00
2022,01,01,21,59,1.00
2022,01,01,22,00,1.10
2022,01,01,22,01,1.10
2022,01,01,22,02,1.10
2022,01,01,22,03,1.10
2022,01,01,22,04,1.10
2022,01,01,22,05,1.10
2022,01,01,22,06,1.20
2022,01,01,22,07,1.20
2022,01,01,22,08,1.20
2022,01,01,22,09,1.30
2022,01,01,22,10,1.30
2022,01,01,22,11,1.30
2022,01,01,22,12,1.40
2022,01,01,22,13,1.40
2022,01,01,22,14,1.40
2022,01,01,22,15,1.40
2022,01,01,22,16,1.40
2022,01,01,22,17,1.50
2022,01,01,22,18,1.50
2022,01,01,22,19,1.40
2022,01,01,22,20,1.40
2022,01,01,22,21,1.40
2022,01,01,22,22,1.40
2022,01,01,22,23,1.40
2022,01,01,22,24,1.50
2022,01,01,22,25,1.50
2022,01,01,22,26,1.60
2022,01,01,22,27,1.60
2022,01,01,22,28,1.60
2022,01,01,22,29,1.70
2022,01,01,22,30,1.70
2022,01,01,22,31,1.70
2022,01,01,22,32,1.60
2022,01,01,22,33,1.60
2022,01,01,22,34,1.60
2022,01,01,22,35,1.60
2022,01,01,22,36,1.60
2022,01,01,22,37,1.60
2022,01,01,22,38,1.60
2022,01,01,22,39,1.70
2022,01,01,22,40,1.70
2022,01,01,22,41,1.70
2022,01,01,22,42,1.70
2022,01,01,22,43,1.70
2022,01,01,22,44,1.70
2022,01,01,22,45,1.70
2022,01,01,22,46,1.70
2022,01,01,22,47,1.80
2022,01,01,22,48,1.80
2022,01,01,22,49,1.80
2022,01,01,22,50,1.80
2022,01,01,22,51,1.70
2022,01,01,22,52,1.70
2022,01,01,22,53,1.70
2022,01,01,22,54,1.60
2022,01,01,22,55,1.60
2022,01,01,22,56,1.60
2022,01,01,22,57,1.60
2022,01,01,22,58,1.60
2022,01,01,22,59,1.60